TimeEDT,TemperatureF,Dew PointF,Humidity,Sea Level PressureIn,VisibilityMPH,Wind Direction,Wind SpeedMPH,Gust SpeedMPH,PrecipitationIn,Events,Conditions,WindDirDegrees,DateUTC
12:56 AM,66.9,65.8,96,30.07,5.0,Calm,Calm,-,N/A,,Clear,0,2013-08-23 04:56:00
1:41 AM,66.2,66.2,100,30.05,2.5,Calm,Calm,-,N/A,,Clear,0,2013-08-23 05:41:00
1:56 AM,65.8,65.8,100,30.07,2.5,Calm,Calm,-,N/A,,Clear,0,2013-08-23 05:56:00
2:03 AM,66.2,66.2,100,30.04,3.0,Calm,Calm,-,N/A,,Clear,0,2013-08-23 06:03:00
2:44 AM,66.2,66.2,100,30.04,2.5,Calm,Calm,-,N/A,,Clear,0,2013-08-23 06:44:00
2:56 AM,65.8,65.8,100,30.06,1.8,Calm,Calm,-,N/A,,Mostly Cloudy,0,2013-08-23 06:56:00
3:14 AM,66.2,66.2,100,30.04,2.5,Calm,Calm,-,N/A,,Scattered Clouds,0,2013-08-23 07:14:00
3:34 AM,66.2,66.2,100,30.04,1.2,Calm,Calm,-,N/A,,Mostly Cloudy,0,2013-08-23 07:34:00
3:37 AM,66.2,66.2,100,30.04,0.8,Calm,Calm,-,N/A,,Mostly Cloudy,0,2013-08-23 07:37:00
3:46 AM,66.2,66.2,100,30.04,0.2,Calm,Calm,-,N/A,Fog,Fog,0,2013-08-23 07:46:00
3:56 AM,65.8,65.8,100,30.06,0.5,Calm,Calm,-,N/A,Fog,Fog,0,2013-08-23 07:56:00
4:03 AM,66.2,66.2,100,30.04,1.0,Calm,Calm,-,N/A,,Mostly Cloudy,0,2013-08-23 08:03:00
4:15 AM,66.2,66.2,100,30.04,1.8,Calm,Calm,-,N/A,,Mostly Cloudy,0,2013-08-23 08:15:00
4:22 AM,66.2,66.2,100,30.04,3.0,Calm,Calm,-,N/A,,Scattered Clouds,0,2013-08-23 08:22:00
4:38 AM,66.2,66.2,100,30.04,2.0,Calm,Calm,-,N/A,,Scattered Clouds,0,2013-08-23 08:38:00
4:56 AM,66.2,66.2,100,30.04,1.5,Calm,Calm,-,N/A,,Mostly Cloudy,0,2013-08-23 08:56:00
5:03 AM,64.4,64.4,100,30.04,1.0,Calm,Calm,-,N/A,,Mostly Cloudy,0,2013-08-23 09:03:00
5:14 AM,66.2,66.2,100,30.04,1.5,Calm,Calm,-,N/A,,Mostly Cloudy,0,2013-08-23 09:14:00
5:33 AM,66.2,66.2,100,30.05,1.0,Calm,Calm,-,N/A,,Mostly Cloudy,0,2013-08-23 09:33:00
5:44 AM,64.4,64.4,100,30.04,1.2,Calm,Calm,-,N/A,,Mostly Cloudy,0,2013-08-23 09:44:00
5:56 AM,65.8,65.8,100,30.07,4.0,Calm,Calm,-,N/A,,Scattered Clouds,0,2013-08-23 09:56:00
6:15 AM,66.2,66.2,100,30.04,2.0,Calm,Calm,-,N/A,,Mostly Cloudy,0,2013-08-23 10:15:00
6:56 AM,65.8,65.8,100,30.09,2.0,Calm,Calm,-,N/A,,Mostly Cloudy,0,2013-08-23 10:56:00
7:05 AM,64.4,64.4,100,30.07,1.2,Calm,Calm,-,N/A,,Mostly Cloudy,0,2013-08-23 11:05:00
7:07 AM,64.4,64.4,100,30.07,0.8,Calm,Calm,-,N/A,,Mostly Cloudy,0,2013-08-23 11:07:00
7:22 AM,64.4,64.4,100,30.08,1.2,Calm,Calm,-,N/A,,Mostly Cloudy,0,2013-08-23 11:22:00
7:37 AM,64.4,64.4,100,30.07,1.5,Calm,Calm,-,N/A,,Mostly Cloudy,0,2013-08-23 11:37:00
7:56 AM,65.8,65.8,100,30.11,2.0,Calm,Calm,-,N/A,,Clear,0,2013-08-23 11:56:00
8:03 AM,66.2,66.2,100,30.08,1.8,NE,4.6,-,N/A,,Mostly Cloudy,40,2013-08-23 12:03:00
8:11 AM,66.2,66.2,100,30.09,2.5,Calm,Calm,-,N/A,,Partly Cloudy,0,2013-08-23 12:11:00
8:46 AM,66.2,66.2,100,30.09,4.0,Calm,Calm,-,0.00,Rain,Light Rain,0,2013-08-23 12:46:00
8:56 AM,66.9,65.8,96,30.12,5.0,Calm,Calm,-,0.00,,Partly Cloudy,0,2013-08-23 12:56:00
9:56 AM,70.0,63.9,81,30.13,10.0,NE,4.6,-,N/A,,Clear,40,2013-08-23 13:56:00
10:56 AM,75.2,62.6,65,30.12,10.0,East,5.8,-,N/A,,Scattered Clouds,80,2013-08-23 14:56:00
11:56 AM,77.9,61.0,56,30.14,10.0,Variable,6.9,-,N/A,,Mostly Cloudy,0,2013-08-23 15:56:00
12:56 PM,79.0,54.9,43,30.14,10.0,NNE,4.6,-,N/A,,Overcast,20,2013-08-23 16:56:00
1:56 PM,79.0,56.8,46,30.14,10.0,Calm,Calm,-,0.00,,Scattered Clouds,0,2013-08-23 17:56:00
2:56 PM,79.0,57.9,48,30.14,10.0,Calm,Calm,-,0.00,,Partly Cloudy,0,2013-08-23 18:56:00
3:56 PM,79.9,57.9,47,30.12,10.0,Variable,6.9,-,N/A,,Partly Cloudy,0,2013-08-23 19:56:00
4:56 PM,79.0,54.9,43,30.12,10.0,NNW,11.5,17.3,N/A,,Clear,340,2013-08-23 20:56:00
5:56 PM,79.0,54.0,42,30.13,10.0,NNW,10.4,17.3,N/A,,Clear,340,2013-08-23 21:56:00
6:56 PM,77.0,50.9,40,30.13,10.0,North,6.9,-,N/A,,Clear,350,2013-08-23 22:56:00
7:56 PM,72.9,54.9,53,30.15,10.0,North,6.9,-,N/A,,Clear,360,2013-08-23 23:56:00
8:56 PM,68.0,52.9,58,30.18,10.0,NNE,6.9,-,N/A,,Clear,20,2013-08-24 00:56:00
9:56 PM,64.9,52.9,65,30.21,10.0,Calm,Calm,-,N/A,,Clear,0,2013-08-24 01:56:00
10:56 PM,59.0,52.9,80,30.22,10.0,Calm,Calm,-,N/A,,Clear,0,2013-08-24 02:56:00
11:56 PM,59.9,52.9,78,30.24,10.0,Calm,Calm,-,N/A,,Clear,0,2013-08-24 03:56:00